Stations météo

réclame
Mon MeteoGroup
Regensburg, Allemagne (10776): Température de l'air & dewpoint: 14.09.2018 18:00:00 - 20.09.2018 18:00:00 (CEST)Regensburg, Allemagne (10776): Température de l'air 5cm & Température de l'air -5cm: 14.09.2018 18:00:00 - 20.09.2018 18:00:00 (CEST)Regensburg, Allemagne (10776): Température de l'air -20cm & Température de l'air -100cm: 14.09.2018 18:00:00 - 20.09.2018 18:00:00 (CEST)Regensburg, Allemagne (10776): Vitesse du vent & gusts: 14.09.2018 18:00:00 - 20.09.2018 18:00:00 (CEST)Regensburg, Allemagne (10776): Direction du vent: 14.09.2018 18:00:00 - 20.09.2018 18:00:00 (CEST)Regensburg, Allemagne (10776): reduced air pressure: 14.09.2018 18:00:00 - 20.09.2018 18:00:00 (CEST)Regensburg, Allemagne (10776): visibility: 14.09.2018 18:00:00 - 20.09.2018 18:00:00 (CEST)Regensburg, Allemagne (10776): Ensoleillement: 14.09.2018 18:00:00 - 20.09.2018 18:00:00 (CEST)Regensburg, Allemagne (10776): Quantités de précipitations: 14.09.2018 18:00:00 - 20.09.2018 18:00:00 (CEST)
Date & Time tt [°C] td [°C] tt 5cm [°C] tt -5cm [°C] tt -20cm [°C] tt -100cm [°C] ff [km/h] ff [knt] fx [km/h] fx [knt] dd ppp [hPa] vv [km] sd [min] rr [mm]
20.09.2018 18:00:00 25,7 15,0 24,7 25,8 21,9 18,6 9 5 17 9 ESE 1016,5 37 60 0,0
20.09.2018 17:00:00 26,5 14,3 27,7 27,6 21,3 18,6 8 4 18 10 ESE 1016,8 31 60 0,0
20.09.2018 16:00:00 26,6 15,1 29,0 28,7 20,7 18,6 10 6 19 10 SE 1017,3 35 60 0,0
20.09.2018 15:00:00 26,8 15,1 30,5 29,0 20,0 18,6 6 4 18 10 S 1017,9 24 60 0,0
20.09.2018 14:00:00 25,4 15,4 30,1 28,0 19,3 18,6 6 4 18 10 SSE 1018,8 25 60 0,0
20.09.2018 13:00:00 23,9 15,4 28,0 26,0 18,8 18,6 9 5 21 11 SSE 1019,6 20 60 0,0
20.09.2018 12:00:00 21,5 14,6 25,3 23,5 18,5 18,6 8 5 19 11 SSE 1020,6 24 60 0,0
20.09.2018 11:00:00 20,1 14,8 23,4 20,9 18,3 18,6 6 4 15 8 SSE 1021,3 16 60 0,0
20.09.2018 10:00:00 17,4 14,0 19,5 18,2 18,3 18,6 5 3 20 11 S 1021,7 10 60 0,0
20.09.2018 09:00:00 15,9 14,0 16,0 16,1 18,5 18,6 9 5 17 9 SE 1021,7 9 17 0,0
20.09.2018 08:00:00 14,8 14,0 14,1 14,9 18,7 18,6 7 4 16 9 SE 1021,7 9 0 0,0
20.09.2018 07:00:00 14,5 13,9 13,1 14,9 19,0 18,6 5 3 12 7 SSE 1021,5 7 0 0,0
20.09.2018 06:00:00 14,7 14,1 13,4 15,1 19,2 18,6 6 3 13 7 SE 1021,3 7 0 0,0
20.09.2018 05:00:00 14,8 14,2 13,3 15,3 19,5 18,6 5 3 12 6 SSE 1021,5 9 0 0,0
20.09.2018 04:00:00 14,9 14,3 13,0 15,6 19,8 18,6 6 4 10 6 SSE 1021,3 9 0 0,0
20.09.2018 03:00:00 15,3 14,6 12,8 15,9 20,1 18,6 5 3 10 6 SSE 1021,3 12 0 0,0
20.09.2018 02:00:00 15,4 14,5 12,8 16,3 20,4 18,6 4 2 10 5 SSE 1021,4 14 0 0,0
20.09.2018 01:00:00 16,0 14,8 13,9 16,8 20,7 18,6 5 3 9 5 SE 1021,3 18 0 0,0
20.09.2018 00:00:00 16,2 15,1 13,5 17,4 21,0 18,6 4 2 9 5 SSE 1021,4 21 0 0,0
19.09.2018 23:00:00 16,4 15,2 13,7 18,1 21,3 18,6 5 3 11 6 SE 1021,3 26 0 0,0
19.09.2018 22:00:00 17,3 15,4 14,3 18,9 21,6 18,6 4 2 5 3 SE 1021,2 29 0 0,0
19.09.2018 21:00:00 18,6 15,5 15,4 19,8 21,8 18,6 4 2 9 5 SSE 1021,0 34 0 0,0
19.09.2018 20:00:00 19,8 14,9 16,4 21,0 21,9 18,6 6 4 13 7 ESE 1020,4 39 0 0,0
19.09.2018 19:00:00 22,9 14,4 21,2 22,3 21,9 18,6 6 4 13 7 ESE 1019,6 48 31 0,0
19.09.2018 18:00:00 24,3 13,5 22,5 24,0 21,6 18,6 8 4 13 7 SE 1019,2 46 60 0,0
19.09.2018 17:00:00 25,4 13,1 26,7 25,9 21,2 18,6 3 2 11 6 E 1019,3 38 60 0,0
19.09.2018 16:00:00 25,2 13,9 28,5 26,8 20,6 18,6 7 4 12 6 S 1019,5 27 60 0,0
19.09.2018 15:00:00 24,6 13,9 28,2 26,8 20,1 18,6 5 3 14 8 SSE 1019,9 32 60 0,0
19.09.2018 14:00:00 23,4 14,0 27,6 25,9 19,7 18,6 7 4 12 7 S 1020,6 33 57 0,0
19.09.2018 13:00:00 22,0 14,9 25,3 23,6 19,5 18,6 5 3 11 6 NE 1021,1 35 23 0,0
19.09.2018 12:00:00 19,6 15,7 21,3 20,7 19,5 18,6 3 1 13 7 E 1021,5 37 0 0,0
19.09.2018 11:00:00 18,1 15,4 18,9 19,6 19,4 18,6 4 2 15 8 SSE 1021,4 39 1 0,0
19.09.2018 10:00:00 17,4 15,4 18,0 18,9 19,5 18,6 8 4 21 11 SSE 1021,8 27 11 0,0
19.09.2018 09:00:00 16,7 15,8 16,8 17,6 19,7 18,6 9 5 17 9 NE 1021,2 24 0 0,0
19.09.2018 08:00:00 15,7 14,7 15,3 17,4 19,9 18,6 5 3 21 12 N 1020,8 41 0 0,3
19.09.2018 07:00:00 15,8 14,0 15,1 17,6 20,0 18,6 4 2 26 14 NE 1020,5 11 0 1,3
19.09.2018 06:00:00 16,0 14,9 15,5 18,0 20,2 18,6 11 6 26 14 S 1020,6 42 0 1,1
19.09.2018 05:00:00 17,3 13,9 16,8 18,4 20,4 18,6 10 5 27 14 SSE 1020,2 46 0 0,0
19.09.2018 04:00:00 17,6 13,8 17,3 18,5 20,6 18,6 10 5 30 16 SSE 1020,1 56 0 0,0
19.09.2018 03:00:00 18,4 13,3 17,7 18,7 20,8 18,6 15 8 24 13 SE 1019,4 69 0 0,0
19.09.2018 02:00:00 19,4 12,8 18,1 19,0 21,0 18,6 10 6 18 10 SSE 1018,7 70 0 0,0
19.09.2018 01:00:00 20,0 13,3 19,1 19,4 21,3 18,6 7 4 16 9 SSE 1018,3 43 0 0,0
19.09.2018 00:00:00 20,0 14,3 18,1 19,6 21,5 18,6 9 5 17 9 SSW 1017,4 32 0 0,0
18.09.2018 23:00:00 20,7 13,9 18,7 20,1 21,8 18,6 6 4 14 8 S 1017,2 28 0 0,0
18.09.2018 22:00:00 19,6 14,2 18,0 20,5 22,1 18,6 7 4 11 6 SSE 1017,1 25 0 0,0
18.09.2018 21:00:00 19,7 13,4 16,0 21,5 22,2 18,6 3 2 8 4 SSE 1016,4 33 0 0,0
18.09.2018 20:00:00 21,9 12,9 17,7 23,0 22,3 18,6 6 3 12 7 S 1015,5 39 0 0,0
18.09.2018 19:00:00 24,6 12,5 20,6 24,7 22,1 18,6 6 4 16 9 S 1014,7 42 34 0,0
18.09.2018 18:00:00 26,8 11,8 24,5 26,5 21,7 18,6 9 5 21 11 SSW 1014,6 39 60 0,0
18.09.2018 17:00:00 28,3 13,1 29,3 28,5 21,1 18,6 8 4 20 11 S 1014,5 22 60 0,0
18.09.2018 16:00:00 28,2 13,0 31,3 29,5 20,4 18,6 5 3 14 8 S 1014,8 29 60 0,0
18.09.2018 15:00:00 26,5 15,1 30,6 29,6 19,6 18,6 8 4 16 9 SSE 1015,7 20 60 0,0
18.09.2018 14:00:00 25,6 15,0 30,3 28,6 18,9 18,6 5 3 18 10 S 1016,3 17 60 0,0
18.09.2018 13:00:00 24,3 15,5 29,3 26,8 18,3 18,6 8 5 17 9 SE 1016,8 18 60 0,0
18.09.2018 12:00:00 22,7 14,8 28,0 24,2 17,8 18,6 8 4 16 9 SE 1017,5 18 60 0,0
18.09.2018 11:00:00 20,7 13,6 24,7 21,1 17,6 18,6 7 4 14 7 SSE 1018,1 - 60 0,0
18.09.2018 10:00:00 18,1 12,8 20,5 18,0 17,7 18,6 4 2 7 4 SE 1018,6 13 59 0,0
18.09.2018 09:00:00 14,3 11,9 14,8 15,0 17,9 18,6 4 2 7 4 NNW 1019,0 10 32 0,0
18.09.2018 08:00:00 11,2 10,9 10,4 13,4 18,2 18,6 5 3 8 4 N 1019,3 6 1 0,0
18.09.2018 07:00:00 10,9 10,6 9,2 13,6 18,4 18,6 5 3 8 5 N 1018,9 4,5 0 0,0
18.09.2018 06:00:00 11,4 11,1 9,5 14,0 18,8 18,6 6 3 9 5 N 1018,7 4,4 0 0,0
18.09.2018 05:00:00 11,8 11,4 10,1 14,5 19,1 18,7 4 2 8 4 N 1018,6 6 0 0,0
18.09.2018 04:00:00 12,3 11,9 10,5 15,0 19,4 18,7 5 3 8 5 NNW 1018,5 4,3 0 0,0
18.09.2018 03:00:00 13,2 12,9 10,9 15,6 19,7 18,7 4 2 8 4 N 1018,5 8 0 0,0
18.09.2018 02:00:00 13,5 13,0 11,5 16,2 20,0 18,7 4 2 7 4 N 1018,9 7 0 0,0
18.09.2018 01:00:00 14,0 13,3 12,1 16,9 20,3 18,7 5 3 8 4 N 1018,9 9 0 0,0
18.09.2018 00:00:00 15,0 13,9 13,0 17,7 20,6 18,7 5 3 7 4 N 1019,0 13 0 0,0
17.09.2018 23:00:00 16,0 14,2 14,1 18,5 20,9 18,7 5 3 7 4 NE 1019,0 17 0 0,0
17.09.2018 22:00:00 17,7 14,6 14,7 19,4 21,1 18,7 2 1 6 3 NNW 1018,7 20 0 0,0
17.09.2018 21:00:00 19,1 14,9 15,7 20,5 21,2 18,7 4 2 10 5 N 1018,6 23 0 0,0
17.09.2018 20:00:00 21,3 14,5 18,1 21,8 21,2 18,7 6 4 13 7 ESE 1018,1 26 0 0,0
17.09.2018 19:00:00 23,6 14,6 22,1 23,4 21,1 18,7 5 3 14 8 E 1017,7 24 34 0,0
17.09.2018 18:00:00 25,1 14,3 24,1 25,0 20,7 18,7 7 4 13 7 E 1017,5 24 60 0,0
17.09.2018 17:00:00 25,8 12,0 26,9 26,9 20,1 18,7 5 3 13 7 S 1017,8 35 60 0,0
17.09.2018 16:00:00 25,1 13,3 28,3 28,1 19,3 18,7 6 3 14 8 ESE 1018,3 38 60 0,0
17.09.2018 15:00:00 25,5 13,3 30,0 28,2 18,6 18,7 8 4 16 9 S 1018,9 30 59 0,0
17.09.2018 14:00:00 24,1 14,3 28,1 27,2 17,9 18,7 8 4 19 10 SSE 1019,8 17 60 0,0
17.09.2018 13:00:00 23,2 14,9 27,7 25,1 17,3 18,7 8 4 17 9 SSE 1020,5 19 60 0,0
17.09.2018 12:00:00 21,6 13,9 26,3 22,5 16,8 18,7 9 5 16 9 SE 1021,0 13 60 0,0
17.09.2018 11:00:00 19,5 13,2 22,9 19,6 16,6 18,7 6 4 16 9 SSE 1021,8 15 60 0,0
17.09.2018 10:00:00 17,4 12,2 20,0 16,5 16,6 18,7 7 4 16 9 SE 1022,3 15 60 0,0
17.09.2018 09:00:00 13,2 8,8 13,9 13,5 16,8 18,8 2 1 5 3 WSW 1022,9 18 32 0,0
17.09.2018 08:00:00 9,2 8,4 8,7 11,9 17,1 18,8 4 2 8 4 NNW 1023,6 20 1 0,0
17.09.2018 07:00:00 9,0 8,3 7,9 12,0 17,4 18,8 6 4 9 5 NNE 1023,5 18 0 0,0
17.09.2018 06:00:00 9,1 8,4 8,1 12,4 17,7 18,8 5 3 8 5 N 1023,1 15 0 0,0
17.09.2018 05:00:00 9,5 8,5 8,4 12,8 18,0 18,8 4 2 9 5 N 1022,7 20 0 0,0
17.09.2018 04:00:00 10,2 9,1 8,7 13,3 18,3 18,8 5 3 7 4 N 1022,5 24 0 0,0
17.09.2018 03:00:00 10,4 9,3 8,8 13,9 18,5 18,8 2 1 7 4 N 1022,6 25 0 0,0
17.09.2018 02:00:00 11,0 9,4 9,8 14,5 18,8 18,8 7 4 9 5 N 1022,8 28 0 0,0
17.09.2018 01:00:00 12,1 10,0 11,2 15,2 19,1 18,8 6 3 8 4 N 1022,6 30 0 0,0
17.09.2018 00:00:00 11,9 10,0 10,6 15,3 19,4 18,8 5 3 10 5 N 1022,5 31 0 0,0
16.09.2018 23:00:00 12,8 10,3 11,1 16,0 19,7 18,8 6 4 11 6 N 1022,5 38 0 0,0
16.09.2018 22:00:00 13,3 10,1 11,6 16,7 20,0 18,8 6 3 8 5 NNW 1022,3 45 0 0,0
16.09.2018 21:00:00 15,2 9,8 12,7 17,7 20,2 18,8 6 3 9 5 N 1021,9 49 0 0,0
16.09.2018 20:00:00 17,8 9,1 13,3 19,1 20,3 18,8 5 3 7 4 NNE 1021,0 61 0 0,0
16.09.2018 19:00:00 19,5 8,8 16,2 20,8 20,2 18,8 0 0 6 3 N 1020,6 54 28 0,0
16.09.2018 18:00:00 22,3 6,1 19,6 22,3 19,9 18,8 3 2 10 6 SE 1020,2 54 60 0,0
16.09.2018 17:00:00 23,3 3,4 24,8 23,9 19,4 18,8 5 3 12 7 SSE 1020,2 51 60 0,0
16.09.2018 16:00:00 23,3 6,1 26,6 25,0 18,8 18,8 4 2 16 9 SSE 1020,9 41 60 0,0
16.09.2018 15:00:00 22,9 6,5 27,1 25,2 18,1 18,8 6 4 18 10 SE 1021,4 30 60 0,0
16.09.2018 14:00:00 22,0 8,2 25,8 24,6 17,5 18,8 6 3 14 8 SSE 1022,0 28 60 0,0
16.09.2018 13:00:00 20,7 7,2 25,7 23,7 16,9 18,8 6 4 16 8 SE 1023,0 28 60 0,0
16.09.2018 12:00:00 20,2 10,9 26,0 21,5 16,5 18,8 5 3 10 6 N 1023,6 37 60 0,0
16.09.2018 11:00:00 17,4 9,7 21,0 18,6 16,3 18,8 4 2 9 5 N 1024,4 26 60 0,0
16.09.2018 10:00:00 13,8 8,7 16,8 15,4 16,3 18,8 4 2 11 6 NNW 1024,9 20 60 0,0
16.09.2018 09:00:00 10,5 7,1 11,4 12,1 16,6 18,8 7 4 14 8 N 1025,5 20 43 0,0
16.09.2018 08:00:00 7,4 6,7 6,6 10,5 16,9 18,8 6 3 11 6 N 1026,1 15 5 0,0
16.09.2018 07:00:00 7,0 6,4 5,7 10,7 17,3 18,8 8 4 11 6 N 1025,9 12 0 0,0
16.09.2018 06:00:00 7,4 6,7 6,0 11,1 17,6 18,8 7 4 12 6 N 1025,9 15 0 0,0
16.09.2018 05:00:00 7,7 7,2 6,5 11,5 18,0 18,8 6 3 7 4 N 1025,9 15 0 0,0
16.09.2018 04:00:00 7,8 7,1 6,7 12,0 18,4 18,8 5 3 8 4 N 1026,2 16 0 0,0
16.09.2018 03:00:00 8,6 7,8 7,3 12,6 18,7 18,8 6 3 8 5 N 1026,5 18 0 0,0
16.09.2018 02:00:00 9,1 8,3 7,9 13,1 19,1 18,8 5 3 6 3 N 1026,8 16 0 0,0
16.09.2018 01:00:00 9,8 8,3 8,2 13,8 19,6 18,8 5 3 7 4 N 1026,8 27 0 0,0
16.09.2018 00:00:00 10,3 8,9 8,8 14,5 20,0 18,8 5 3 8 4 NNW 1026,4 23 0 0,0
15.09.2018 23:00:00 11,5 9,0 9,2 15,3 20,4 18,9 3 2 9 5 N 1026,1 28 0 0,0
15.09.2018 22:00:00 12,7 9,2 10,2 16,3 20,7 18,9 6 3 9 5 N 1025,6 34 0 0,0
15.09.2018 21:00:00 14,3 8,7 11,1 17,4 21,0 18,9 7 4 9 5 N 1025,0 47 0 0,0
15.09.2018 20:00:00 15,9 8,0 12,6 18,8 21,2 18,9 6 3 12 7 NNW 1024,0 51 0 0,0
15.09.2018 19:00:00 18,7 8,1 15,6 20,4 21,3 18,9 6 3 20 11 NW 1022,9 53 40 0,0
15.09.2018 18:00:00 20,9 7,7 18,5 22,0 21,1 18,9 6 3 23 12 WNW 1022,3 45 60 0,0
15.09.2018 17:00:00 21,6 8,1 22,8 23,9 20,8 18,9 9 5 25 14 WNW 1022,3 41 54 0,0
15.09.2018 16:00:00 20,8 8,9 22,7 25,6 20,3 18,9 9 5 29 16 W 1022,4 49 50 0,0
15.09.2018 15:00:00 22,9 9,9 27,4 25,7 19,9 18,9 10 5 26 14 NW 1022,2 32 50 0,0
15.09.2018 14:00:00 22,1 11,0 27,7 24,3 19,5 18,9 8 4 18 10 WNW 1022,2 32 28 0,0
15.09.2018 13:00:00 21,0 11,5 23,5 24,0 19,0 18,9 4 2 12 6 W 1022,5 36 24 0,0
15.09.2018 12:00:00 21,2 12,7 25,4 24,0 18,6 18,9 5 3 15 8 N 1022,3 32 57 0,0
15.09.2018 11:00:00 19,9 12,8 24,8 21,8 18,5 18,9 5 3 18 10 NW 1022,6 27 47 0,0
15.09.2018 10:00:00 17,9 14,1 19,0 18,7 18,4 18,9 6 4 12 7 N 1022,6 13 23 0,0
15.09.2018 09:00:00 16,2 14,9 16,0 16,9 18,5 18,9 3 1 8 4 W 1022,0 8 0 0,0
15.09.2018 08:00:00 15,4 14,7 15,3 16,2 18,7 18,9 3 1 6 3 SW 1021,7 6 0 0,0
15.09.2018 07:00:00 15,0 14,5 14,5 16,2 18,8 18,9 2 1 5 3 SSE 1020,8 6 0 0,0
15.09.2018 06:00:00 15,2 14,3 14,3 16,5 18,9 18,9 3 2 9 5 SE 1020,5 7 0 0,0
15.09.2018 05:00:00 15,6 14,4 15,2 16,5 19,1 18,9 5 3 8 4 SE 1020,4 9 0 0,0
15.09.2018 04:00:00 15,5 14,2 14,9 16,6 19,3 18,9 6 4 13 7 SE 1020,2 11 0 0,0
15.09.2018 03:00:00 15,5 14,2 14,8 16,7 19,5 18,9 4 2 9 5 SE 1020,3 12 0 0,0
15.09.2018 02:00:00 15,2 14,2 14,4 16,9 19,6 18,9 4 2 9 5 SE 1020,1 14 0 0,0
15.09.2018 01:00:00 15,8 14,5 15,1 17,3 19,8 18,9 4 2 7 4 SSE 1020,2 16 0 0,0
15.09.2018 00:00:00 16,0 15,0 14,7 17,8 20,0 18,9 2 1 5 3 S 1020,0 11 0 0,0
14.09.2018 23:00:00 16,6 14,9 15,6 18,1 20,2 18,9 2 1 3 2 NE 1019,9 14 0 0,0
14.09.2018 22:00:00 16,7 14,8 15,5 18,5 20,3 18,9 2 1 5 3 SSE 1019,7 15 0 0,0
14.09.2018 21:00:00 17,0 14,9 16,5 19,1 20,5 18,9 3 2 7 4 WSW 1019,8 16 0 0,0
14.09.2018 20:00:00 17,2 14,4 16,5 19,6 20,5 18,9 5 3 7 4 SSW 1019,2 17 0 0,0
14.09.2018 19:00:00 17,9 14,2 16,7 20,4 20,5 18,9 5 3 8 5 SSW 1018,9 23 22 0,0
14.09.2018 18:00:00 20,5 12,6 19,0 21,5 20,3 18,9 3 2 10 5 WSW 1018,3 21 49 0,0

tt = Température de l'air
td = dewpoint
tt 5cm = Température de l'air 5cm
tt -5cm = Température de l'air -5cm
tt -20cm = Température de l'air -20cm
tt -100cm = Température de l'air -100cm
ff = Vitesse du vent
fx = gusts
dd = Direction du vent
ppp = reduced air pressure
vv = visibility
sd = Ensoleillement
rr = Quantités de précipitations

stations d'obs. à proximité